ECHO 1 DEB (METAL OBJ), 51

Orbit data source: Space-Track

ECHO 1 DEB (METAL OBJ), 51 is space debris in LEO originally from a launch on Fri, 12 Aug 1960 UTC launched from the Air Force Eastern Test Range (AFETR). Debris objects in space refer to the collection of defunct objects orbiting the Earth. Examples of debris include non-operational satellites, rocket bodies, and fragments generated from explosions, collisions, or faulty payload assembly.

Loading next visibility...
Identifier
51, 1960-009C
Orbit
LEO
Country
Flag of USUS
Related business
Manufacturer
Kaiser-Fleetwings
Mission
Spacecraft
Bus & Motor
ECHO CANISTER, Unknown motor
Mass
5 kg wet, 5 kg dry
Launch date (UTC)
1960-08-12 (65 years ago)
Launch vehicle
Unknown
Launch site
Air Force Eastern Test Range (AFETR)
Object type
Payload
Rocket body
Debris
Shape & HBR
Unknown shape, 1.0 m
Radar Cross Section
Medium (>0.1 m² and <1 m²)

Expand to show TLE details & history
Last TLE update: 17 hours ago

TLE from 17 hours ago
0 ECHO 1 DEB (METAL OBJ)
1 00051U 60009C   25340.86259504 -.00000048  00000-0  36124-3 0  9996
2 00051  47.2136 284.4824 0111237 344.4345  15.3036 12.18376623907727
Epoch: 2025-12-06T20:42Z
TLE epoch observation values (Epoch: 2025-12-06T20:42:08.211Z)
Latitude
-0°
Longitude
-101.93606°
Altitude
1,514.312 km
Speed
7.147 km/s
True Right ascension
18h 57m 55s
True Declination
0° 00' 00"
Sunlit
Object was in daylight at epoch
Visualization orbit readout
Latitude
Unknown
Longitude
Unknown
Altitude
Unknown
Speed
Unknown
Apparent Right ascension
Unknown
Apparent Declination
Unknown
Sunlit
N/A
Visualization observer readout
Local Sidereal Time
11:41:40
Azimuth
Unknown
Elevation
Unknown
Doppler factor
Unknown
Orbital elements
Apogee altitude
1,689.44 km
Perigee altitude
1,511.932 km
Semi-major axis
7,978.823 km
Eccentricity
0.01112
Inclination
47.2136°
RAAN
284.4824°
Arg. of periapsis
344.4345°
True anomaly
15.6446°
Mean anomaly
15.3036°
Eccentric anomaly
15.47364°
Mean motion
3.04533 °/min
Orbital period
118.21 mins
BSTAR
0.00036124
Loading maneuver chart data...
Computing Atmospheric mass density...
Loading historical data...
Loading historical data...
Loading historical data...
Loading historical data...
Loading historical data...
Loading historical data...
Loading historical data...
Other satellites on launch #9 in the year 1960 (1960-08-12 UTC)

Documentation

Showing up to 5 results
|